Weather History for KVEL - April, 2013

Change the Weather History Date:

Tuesday, April 2, 2013

  Actual Average Record
Temperature  
Mean Temperature 46 °F 43 °F  
Max Temperature 57 °F 55 °F 75 °F (2011)
Min Temperature 34 °F 31 °F 12 °F (1952)
Degree Days  
Heating Degree Days 19 22  
Month to date heating degree days 36 44  
Since 1 July heating degree days 6766 6375  
Cooling Degree Days 0 0  
Month to date cooling degree days 0 0  
Year to date cooling degree days 0 0  
Moisture  
Dew Point 37 °F    
Average Humidity 69    
Maximum Humidity 92    
Minimum Humidity 46    
Precipitation  
Precipitation 0.15 in 0.02 in 0.62 in (1986)
Month to date precipitation 0.26 0.04  
Year to date precipitation 1.98 1.74  
Sea Level Pressure  
Sea Level Pressure 29.97 in    
Wind  
Wind Speed 5 mph (North)    
Max Wind Speed 17 mph    
Max Gust Speed 22 mph    
Visibility 10 miles    
Events Rain    
T = Trace of Precipitation, MM = Missing Value Source: NWS Daily Summary

Daily Weather History Graph

Daily Weather History Graph

Search for Another Location

Airport or City:

Trip Planner

Search our weather history database for the weather conditions in past years. The results will help you decide how hot, cold, wet, or windy it might be!

Date:

Astronomy

Apr. 02, 2013 Rise Set
Actual Time 6:59 AM MDT 7:43 PM MDT
Civil Twilight 6:32 AM MDT 8:11 PM MDT
Nautical Twilight 5:59 AM MDT 8:44 PM MDT
Astronomical Twilight 5:25 AM MDT 9:18 PM MDT
Moon 1:52 AM MDT (4/2) 11:53 AM MDT (4/2)
Length of Visible Light 13h 39m
Length of Day
12h 44m
Waning Gibbous, 55% of the Moon is Illuminated
Apr 2
Waning Gibbous
Apr 2
Last Quarter
Apr 10
New
Apr 18
First Quarter
Apr 25
Full

Hourly Weather History & Observations

Time (MDT) Temp. Windchill Dew Point Humidity Pressure Visibility Wind Dir Wind Speed Gust Speed Precip Events Conditions
12:53 AM 39.9 °F 34.5 °F 37.9 °F 93% 29.89 in 10.0 mi NNW 8.1 mph - N/A   Scattered Clouds
1:53 AM 41.0 °F 39.0 °F 37.0 °F 86% 29.89 in 10.0 mi West 3.5 mph - N/A   Mostly Cloudy
2:53 AM 39.0 °F - 37.0 °F 93% 29.88 in 10.0 mi Calm Calm - N/A   Partly Cloudy
3:51 AM 39.2 °F 32.5 °F 35.6 °F 87% 29.95 in 10.0 mi West 10.4 mph 130.0 mph N/A   Squalls
3:53 AM 39.9 °F - 37.0 °F 89% 29.89 in 10.0 mi Calm Calm - N/A   Overcast
4:53 AM 41.0 °F 39.0 °F 37.9 °F 89% 29.92 in 10.0 mi WNW 3.5 mph - 0.01 in Rain Light Rain
5:30 AM 41.0 °F - 37.4 °F 87% 29.96 in 10.0 mi Calm Calm - 0.00 in Rain Light Rain
5:53 AM 41.0 °F 38.0 °F 37.9 °F 89% 29.93 in 10.0 mi North 4.6 mph - 0.00 in   Overcast
6:37 AM 41.0 °F 37.1 °F 37.4 °F 87% 29.96 in 10.0 mi NNW 5.8 mph - N/A   Overcast
6:53 AM 41.0 °F 38.0 °F 37.0 °F 86% 29.94 in 10.0 mi NNW 4.6 mph - N/A   Overcast
7:53 AM 42.1 °F 38.4 °F 37.0 °F 82% 29.95 in 10.0 mi NNE 5.8 mph - N/A   Overcast
8:53 AM 39.9 °F 36.7 °F 37.9 °F 93% 29.99 in 10.0 mi ENE 4.6 mph - N/A   Mostly Cloudy
9:53 AM 41.0 °F - 37.0 °F 86% 29.99 in 10.0 mi Calm Calm - N/A   Overcast
10:53 AM 43.0 °F - 37.9 °F 82% 30.00 in 10.0 mi Calm Calm - 0.00 in Rain Light Rain
11:53 AM 42.1 °F 36.6 °F 37.0 °F 82% 30.02 in 7.0 mi NE 9.2 mph - 0.09 in Rain Light Rain
12:19 PM 41.0 °F 35.2 °F 37.4 °F 87% 30.03 in 8.0 mi North 9.2 mph - 0.03 in Rain Light Rain
12:41 PM 42.8 °F 37.5 °F 37.4 °F 81% 30.02 in 7.0 mi NNW 9.2 mph - 0.05 in Rain Light Rain
12:53 PM 45.0 °F 40.1 °F 39.9 °F 82% 29.99 in 10.0 mi North 9.2 mph - 0.05 in   Mostly Cloudy
1:53 PM 50.0 °F - 41.0 °F 71% 29.94 in 10.0 mi Calm Calm - N/A   Scattered Clouds
2:53 PM 55.9 °F - 36.0 °F 47% 29.91 in 10.0 mi NE 17.3 mph 21.9 mph N/A   Scattered Clouds
3:53 PM 55.9 °F - 35.1 °F 45% 29.91 in 10.0 mi North 17.3 mph 21.9 mph N/A   Scattered Clouds
4:53 PM 54.0 °F - 33.1 °F 45% 29.93 in 10.0 mi ENE 11.5 mph - N/A   Overcast
5:46 PM 48.2 °F - 35.6 °F 62% 30.02 in 10.0 mi North 11.5 mph - 0.00 in Rain Light Rain
5:53 PM 48.9 °F - 36.0 °F 61% 29.97 in 10.0 mi Variable 5.8 mph - 0.00 in Rain Light Rain
6:53 PM 48.0 °F - 37.0 °F 66% 29.98 in 10.0 mi East 5.8 mph - 0.00 in   Clear
7:53 PM 45.0 °F 42.6 °F 37.0 °F 74% 30.00 in 10.0 mi West 4.6 mph - N/A   Clear
8:53 PM 43.0 °F 41.3 °F 37.0 °F 80% 30.04 in 10.0 mi Variable 3.5 mph - N/A   Mostly Cloudy
9:53 PM 41.0 °F 39.0 °F 37.0 °F 86% 30.06 in 10.0 mi NW 3.5 mph - N/A   Clear
10:53 PM 41.0 °F - 36.0 °F 82% 30.06 in 10.0 mi Calm Calm - N/A   Clear
11:53 PM 37.0 °F 34.5 °F 35.1 °F 93% 30.08 in 10.0 mi NNE 3.5 mph - N/A   Clear